User: anonymous   Login
Location: Unspecified
(0.0000°N, 0.0000°E)
Time: 12:19:12
(UTC+02:00)
Language:

Resurs 01 Rocket - Orbit

View from above orbital plane
View from above orbital plane
View from above satellite
View from above satellite

Ground track
Ground track

The orbit data is extracted from the following two-line orbital elements,

1 23343U 94074B   17175.60885331 -.00000004 +00000-0 +70270-5 0  9990
2 23343 098.1524 212.7690 0008021 056.1854 095.9796 14.76701406217712
Epoch (UTC): 24 June 2017 14:36:44
Eccentricity: 0.0008021
inclination: 98.1524°
perigee height: 634 km
apogee height: 645 km
right ascension of ascending node: 212.7690°
argument of perigee: 56.1854°
revolutions per day: 14.76701406
mean anomaly at epoch: 95.9796°
orbit number at epoch: 21771

The dashed part of the orbit path shows where the satellite is in the earth's shadow,  

DLR